Regional Weather Roundup
Issued by NWS

Home | Current Version | Previous Version | Text Only | Print | Product List | Glossary Off
Versions: 1 2 3 4 5 6 7 8 9 10 11 12 13 14 15 16 17 18 19 20 21 22 23 24 25 26 27

000
ASUS45 KBOU 280007
RWRCO

WEATHER ROUNDUP FOR COLORADO
NATIONAL WEATHER SERVICE DENVER/BOULDER CO
600 PM MDT WED JUL 27 2016

NOTE: "FAIR" INDICATES FEW OR NO CLOUDS BELOW 12000 FEET WITH NO
SIGNIFICANT WEATHER AND/OR OBSTRUCTIONS TO VISIBILITY.

COZ001>005-013-030-031-280100-
...NORTHWEST COLORADO...

CITY           SKY/WX    TMP DP  RH WIND       PRES   REMARKS
CRAIG          FAIR      93  12   5 W10       30.18F
HAYDEN         FAIR      90  27  10 W13G20    30.21F
MEEKER         FAIR      91  27  10 SW8       30.21S
MOUNT WERNER   NOT AVBL
STEAMBOAT SPGS FAIR      88  28  11 SW6       30.24F
WALDEN         FAIR      79  19  11 W9        30.37F
$$

COZ006>008-011-280100-
...WEST CENTRAL VALLEYS...

CITY           SKY/WX    TMP DP  RH WIND       PRES   REMARKS
GRAND JUNCTION FAIR      99  33  10 W9        30.04F
MONTROSE       FAIR      93  32  11 W8        30.16F
EAGLE          MOSUNNY   90  30  12 W9        30.22F
RIFLE          FAIR      96  25   8 N8        30.11S
DELTA          NOT AVBL
NUCLA          NOT AVBL
$$

COZ017>023-064>068-280100-
...SOUTHWEST COLORADO...

CITY           SKY/WX    TMP DP  RH WIND       PRES   REMARKS
DURANGO        FAIR      91  28  10 VRB3      30.18F
CORTEZ         FAIR      96  32  10 N10       30.13F
PAGOSA SPRINGS FAIR      89  13   6 CALM      30.28F
TELLURIDE      FAIR      78  28  15 NE5       30.49S
WOLF CREEK PAS FAIR      61  27  27 N12       30.71F
$$

COZ009-010-012-014-032>034-037-058>063-280100-
...CENTRAL COLORADO...

CITY           SKY/WX    TMP DP  RH WIND       PRES   REMARKS
ASPEN          FAIR      86  29  12 NW13      30.33F
BUENA VISTA    FAIR      82  19   9 NW14      30.32S
COPPER MTN     FAIR      64  19  17 NW3       30.73F
BERTHOUD PASS  FAIR      59  43  55 N21G36    30.74F
COTTONWOOD PAS PTSUNNY   82   9   6 CALM      30.50F
GUNNISON       FAIR      84  27  12 NW8       30.34S
KREMMLING      FAIR      90   7   4 N9G18     30.31S
LEADVILLE      FAIR      76  18  11 N13G20    30.51F
MONARCH PASS   FAIR      68  14  12 MISG      30.80F
SALIDA         FAIR      90  22   8 N9G16     30.33F
SUNLIGHT       NOT AVBL
WILKERSON PASS PTSUNNY   64  32  29 CALM      30.67F
$$

COZ069>075-280100-
...SAN LUIS VALLEY/SANGRE DE CRISTO MOUNTAINS...

CITY           SKY/WX    TMP DP  RH WIND       PRES   REMARKS
ALAMOSA        FAIR      87  29  12 CALM      30.27F
LA VETA PASS   FAIR      68  32  26 NE6       30.54S
SAGUACHE       FAIR      88  32  13 S8        30.29F
$$

COZ035-036-038>040-280100-
...NORTHERN COLORADO FRONT RANGE...

CITY           SKY/WX    TMP DP  RH WIND       PRES   REMARKS
DENVER INTL AP FAIR      91  44  19 E9        30.11F
DMNS CITY PARK   N/A     91  46  20 E3        30.10S
AURORA         MOSUNNY   91  40  16 NE1       30.13F
FRONT RANGE AP MOSUNNY   91  43  18 NE12      30.13F
ERIE MUNI ARPT FAIR      91  44  20 CALM      30.09S
BOULDER MUN AP FAIR      90  48  24 NE5       30.10S
CENTENNIAL     FAIR      91  33  12 VRB3      30.14F
BROOMFIELD     PTSUNNY   91  46  21 VRB3      30.14F
LONGMONT       NOT AVBL
$$

COZ041-046-047-076>085-087-088-280100-
...PIKES PEAK/PALMER DIVIDE AND SOUTHERN FOOTHILLS...

CITY           SKY/WX    TMP DP  RH WIND       PRES   REMARKS
COLO. SPRINGS  FAIR      89  41  18 SE10G18   30.19F
A. F. ACADEMY  SUNNY     87  37  16 SE9G17    30.20F
SCHRIEVER AFB  NOT AVBL
ELLICOTT       FAIR       1   1 100 S10       30.18F WCI -15
FALCON         NOT AVBL
FORT CARSON    FAIR      89  49  25 SE14      30.16F
LIMON          FAIR      86  46  24 SE20G29   30.13F
MONUMENT HILL  FAIR      82  34  17 SW3       30.27F
TRINIDAD       NOT AVBL
$$

COZ042>045-048>051-090-091-280100-
...NORTHEAST COLORADO...

CITY           SKY/WX    TMP DP  RH WIND       PRES   REMARKS
GREELEY ARPT   FAIR      88  54  31 NE16G22   30.13R THUNDER
AKRON          FAIR      82  61  48 E14       30.11S
BURLINGTON     FAIR      87  57  35 E15       30.07F
WRAY           FAIR      91  52  25 SE10      30.04F
STERLING       NOT AVBL
HOLYOKE        NOT AVBL
FORT MORGAN    NOT AVBL
$$

COZ086-089-092>099-280100-
...SOUTHEAST COLORADO...

CITY           SKY/WX    TMP DP  RH WIND       PRES   REMARKS
PUEBLO         FAIR      95  45  17 SE13      30.05F
LA JUNTA       FAIR      93  55  27 NE16      30.03S
LAMAR          FAIR      90  58  33 E20G25    30.01S
SPRINGFIELD      N/A     78  59  51 S12       30.09R
$$




USA.gov is the U.S. government's official web portal to all federal, state and local government web resources and services.